Weather in Opishnia

Ukraine / Poltava Region     49°57′46″N   34°36′39″E
temp.,
°C
wind,
m/s
gust,
m/s
humid.,
%
clouds,
%
prec.,
mm/h
press.,
hPa
HPBL,
m
23 april, fri
fri2300:00+9s4107656 0.0 1019166
03:00+9s5117696 0.0 1018279
06:00+7s5118821 0.0 1018237
09:00+11ssw6107399 0.0 1017532
12:00+16ssw8115649 0.2 10161711
15:00+13ssw81171100 1.1 10151001
18:00+8nnw6693100 6.9 1015326
21:00+7nw5786100 8.4 1015703
24 april, sat
sat2400:00+6nnw2782100 1.2 1015429
03:00+4wsw49925 1.3 1015287
06:00+3w410885 0.0 1015261
09:00+6wnw79670 0.0 1016984
12:00+9w71045100 0.0 10162385
15:00+7w81150100 0.3 10172203
18:00+7wnw710534 0.1 10182076
21:00+3w410645 0.1 1020280
25 april, sun
sun2500:00+2wsw49770 0.0 1020180
03:00+1wsw37772 0.0 1021139
06:000wsw36764 0.0 1021105
09:00+7sw58565 0.0 1020857
12:00+10sw81146100 0.0 10182165
15:00+11wsw81152100 0.1 10171898
18:00+6w4890100 0.8 1017813
21:00+6nw258688 0.9 1018506
26 april, mon
mon2600:00+4wnw228993 0.0 101850
03:00+2nnw118652 0.0 101710
06:00+2ene0086100 0.0 101710
09:00+5nnw1166100 0.0 1016380
12:00+8wsw2452100 0.1 10151716
15:00+9w4544100 0.3 10141878
18:00+8w675040 0.0 10141744
21:00+4w496859 0.0 1014213
27 april, tue
tue2700:00+3wsw410795 0.0 1014278
03:00+1w489338 0.0 1015186
06:000wsw388798 0.0 1015183
09:00+5w475792 0.0 1015850
12:00+9w5739100 0.0 10152594
15:00+10w6836100 0.0 10142714
18:00+9w594844 0.0 10142026
21:00+5w34695 0.1 101573